User: anonymous
Location: ActonStarParty
(42.4766°N, 71.4538°W)
Time: 14:12:20
(UTC-04:00)
Language:

Cosmos 1300 - Orbit

View from above orbital plane
View from above orbital plane
View from above satellite
View from above satellite

Ground track
Ground track

The orbit data is extracted from the following two-line orbital elements,

1 12785U 81082A   14107.89289644  .00006739  00000-0  40567-3 0  6914
2 12785 082.5034 132.5194 0001018 084.0095 332.8751 15.10669216776824
Epoch (UTC): 17 April 2014 21:25:46
Eccentricity: 0.0001018
inclination: 82.5034°
perigee height: 533 km
apogee height: 535 km
right ascension of ascending node: 132.5194°
argument of perigee: 84.0095°
revolutions per day: 15.10669216
mean anomaly at epoch: 332.8751°
orbit number at epoch: 77682

The dashed part of the orbit path shows where the satellite is in the earth's shadow,  

DLR